sat.trackr.live / text

‹ back to catalog

STARLINK-6249

NORAD 56541 · 2023-065AQ

PAYLOAD ACTIVE UNKNOWN

§ Identity

Operator
Country
US
Launch date
2023-05-14
Launch site
AFETR
Launch vehicle
Mass (kg)
RCS (m²)

Purposes: comms

External: N2YO · Heavens-Above · Gunter

§ Orbital elements

Epoch: 2026-09-19T22:00:04.906944Z

Period
94.27 min
Inclination
43.0021°
Eccentricity
0.0001515
Mean motion
15.27576035 rev/d
Perigee alt
482.0 km
Apogee alt
484.1 km
Semi-major
6,861.2 km
B*
1.9635e-5
RAAN
206.9536°
Arg perigee
265.9829°
Mean anomaly
94.0850°
Rev number
18,617

§ Raw data

STARLINK-62491 56541U 23065AQ  26262.91672346  .00000278  00000+0  19635-4 0  99972 56541  43.0021 206.9536 0001515 265.9829  94.0850 15.27576035186177

JSON: /api/v1/satellites/56541 · /tle

For live sub-satellite position, see the globe view (requires WebGL).

§ Visibility from observer

Set your observer location to see the next 7 days of passes ≥ 10°. The values pass through the URL so the page stays shareable.

No JS? Fill the form by hand. The geolocation button needs JavaScript.